Lander, WY

11:55 PM MST on February 26, 2017 (GMT -0700)
Hunt

Weather History for KLND - December, 2011

Change the Weather History Date:

Thursday, December 29, 2011

  Actual Average Record
Temperature  
Mean Temperature 39 °F 20 °F  
Max Temperature 51 °F 32 °F 56 °F (1996)
Min Temperature 26 °F 9 °F -26 °F (1990)
Degree Days  
Heating Degree Days 26 44  
Month to date heating degree days 1428 1286  
Since 1 July heating degree days 3003 3159  
Cooling Degree Days 0 0  
Month to date cooling degree days 0 0  
Year to date cooling degree days 576 472  
Moisture  
Dew Point 22 °F    
Average Humidity 54    
Maximum Humidity 75    
Minimum Humidity 33    
Precipitation  
Precipitation T in 0.02 in 0.64 in (1915)
Month to date precipitation 0.97 0.55  
Year to date precipitation 15.42 12.63  
Snow  
Snow 0.00 in 0.30 in - ()
Month to date snowfall 15.2 9.6  
Since 1 July snowfall 29.1 35.2  
Snow Depth 6.00 in    
Sea Level Pressure  
Sea Level Pressure 29.80 in    
Wind  
Wind Speed 12 mph (WNW)    
Max Wind Speed 30 mph    
Max Gust Speed 46 mph    
Visibility 10 miles    
Events      
T = Trace of Precipitation, MM = Missing Value Source: NWS Daily Summary

Daily Weather History Graph

Daily Weather History Graph

Search for Another Location

Airport or City:

Trip Planner

Search our weather history database for the weather conditions in past years. The results will help you decide how hot, cold, wet, or windy it might be!

Date:

Astronomy

Dec. 29, 2011 Rise Set
Actual Time 7:45 AM MST 4:48 PM MST
Civil Twilight 7:12 AM MST 5:21 PM MST
Nautical Twilight 6:37 AM MST 5:56 PM MST
Astronomical Twilight 6:02 AM MST 6:31 PM MST
Moon 10:32 AM MST (12/29) 10:37 PM MST (12/29)
Length of Visible Light 10h 08m
Length of Day
9h 03m
Waxing Crescent, 27% of the Moon is Illuminated
Dec 29
Waxing Crescent
Dec 31
First Quarter
Jan 9
Full
Jan 16
Last Quarter
Jan 23
New

Hourly Weather History & Observations

Time (MST) Temp. Windchill Dew Point Humidity Pressure Visibility Wind Dir Wind Speed Gust Speed Precip Events Conditions
12:53 AM 28.9 °F - 21.0 °F 72% 29.86 in 10.0 mi Calm Calm - N/A   Clear
1:53 AM 35.1 °F 32.2 °F 24.1 °F 64% 29.83 in 10.0 mi SSW 3.5 mph - N/A   Clear
2:53 AM 43.0 °F 40.3 °F 24.1 °F 47% 29.80 in 10.0 mi NNW 4.6 mph - N/A   Partly Cloudy
3:53 AM 50.0 °F - 23.0 °F 35% 29.73 in 10.0 mi NNW 18.4 mph 41.4 mph N/A   Partly Cloudy
4:53 AM 48.9 °F - 26.1 °F 41% 29.73 in 10.0 mi West 12.7 mph 31.1 mph N/A   Clear
5:53 AM 51.1 °F - 24.1 °F 35% 29.70 in 10.0 mi Calm Calm - N/A   Clear
6:53 AM 46.0 °F 44.8 °F 27.0 °F 47% 29.75 in 10.0 mi Variable 3.5 mph - N/A   Clear
7:53 AM 44.1 °F 35.4 °F 28.0 °F 53% 29.72 in 10.0 mi SW 21.9 mph 34.5 mph N/A   Clear
8:53 AM 45.0 °F 38.5 °F 28.0 °F 52% 29.70 in 10.0 mi SW 13.8 mph - N/A   Partly Cloudy
9:19 AM 46.4 °F 38.3 °F 24.8 °F 43% 29.73 in 10.0 mi West 23.0 mph 32.2 mph N/A   Mostly Cloudy
9:53 AM 42.8 °F 33.5 °F 30.2 °F 61% 29.73 in 10.0 mi West 23.0 mph 29.9 mph N/A   Overcast
10:53 AM 46.0 °F 39.3 °F 26.1 °F 46% 29.69 in 10.0 mi NNW 16.1 mph - N/A   Clear
11:00 AM 46.4 °F 39.8 °F 26.6 °F 46% 29.72 in 10.0 mi NNW 16.1 mph - N/A   Clear
11:53 AM 48.0 °F - 24.1 °F 39% 29.74 in 10.0 mi WNW 16.1 mph 28.8 mph N/A   Clear
12:53 PM 46.9 °F - 21.0 °F 36% 29.74 in 10.0 mi WNW 26.5 mph 40.3 mph N/A   Clear
1:53 PM 46.9 °F - 19.9 °F 34% 29.71 in 10.0 mi WNW 29.9 mph 46.0 mph N/A   Clear
2:53 PM 46.0 °F 37.0 °F 19.0 °F 34% 29.74 in 10.0 mi WNW 27.6 mph 44.9 mph N/A   Clear
3:53 PM 45.0 °F 37.4 °F 18.0 °F 34% 29.75 in 10.0 mi WNW 18.4 mph 34.5 mph N/A   Clear
4:53 PM 42.1 °F 33.9 °F 16.0 °F 35% 29.80 in 10.0 mi WNW 17.3 mph - N/A   Clear
5:53 PM 39.9 °F 32.9 °F 17.1 °F 40% 29.85 in 10.0 mi North 11.5 mph 18.4 mph N/A   Clear
6:53 PM 36.0 °F - 16.0 °F 44% 29.91 in 10.0 mi Calm Calm - N/A   Clear
7:53 PM 35.1 °F 30.1 °F 16.0 °F 46% 29.96 in 10.0 mi SSE 5.8 mph - N/A   Clear
8:53 PM 32.0 °F 25.6 °F 16.0 °F 52% 29.96 in 10.0 mi ESE 6.9 mph - N/A   Clear
9:53 PM 33.1 °F 28.7 °F 15.1 °F 48% 29.96 in 10.0 mi SE 4.6 mph - N/A   Clear
10:53 PM 28.0 °F 24.2 °F 16.0 °F 61% 29.98 in 10.0 mi WNW 3.5 mph - N/A   Clear
11:53 PM 28.9 °F 25.2 °F 12.9 °F 51% 29.94 in 10.0 mi WNW 3.5 mph - N/A   Clear